Location: �couen
(49.0206°N, 2.3831°E)
Time: 02:57:36
(UTC+00:00)

Cosmos 2098 - Pass Details

Date: 28 May 2022
Orbit: 387 x 1576 km, 82.9° (Epoch: 04 July)

Event Time Altitude Azimuth Distance (km) Brightness Sun altitude
Rises 02:56:16 0° 354° (N) 2,423 8.8 -8.0°
Reaches altitude 10° 02:58:24 10° 358° (N) 1,481 7.7 -7.8°
Maximum altitude 03:01:26 56° 79° (ENE) 470 4.8 -7.4°
Drops below altitude 10° 03:04:23 10° 159° (SSE) 1,431 6.7 -7.1°
Sets 03:06:25 0° 164° (SSE) 2,328 7.7 -6.8°
